Change the Weather History Date:

Tuesday, November 29, 2011

  Actual Average Record
Temperature  
Mean Temperature 36 °F 36 °F  
Max Temperature 40 °F 44 °F 66 °F (1998)
Min Temperature 32 °F 29 °F 8 °F (1976)
Degree Days  
Heating Degree Days 29 28  
Month to date heating degree days 508 642  
Since 1 July heating degree days 1020 1106  
Cooling Degree Days 0 0  
Month to date cooling degree days 0 0  
Year to date cooling degree days 1068 955  
Moisture  
Dew Point 33 °F    
Average Humidity 89    
Maximum Humidity 92    
Minimum Humidity 85    
Precipitation  
Precipitation 0.77 in 0.11 in 0.77 in (2011)
Month to date precipitation 6.42 3.34  
Year to date precipitation 44.02 37.13  
Sea Level Pressure  
Sea Level Pressure 29.70 in    
Wind  
Wind Speed 15 mph (North)    
Max Wind Speed 25 mph    
Max Gust Speed 30 mph    
Visibility 3 miles    
Events Fog , Rain , Snow    
T = Trace of Precipitation, MM = Missing Value Source: NWS Daily Summary

Daily Weather History Graph

Daily Weather History Graph

Search for Another Location

Airport or City:

Trip Planner

Search our weather history database for the weather conditions in past years. The results will help you decide how hot, cold, wet, or windy it might be!

Date:

Astronomy

Nov. 29, 2011 Rise Set
Actual Time 7:42 AM EST 5:16 PM EST
Civil Twilight 7:12 AM EST 5:46 PM EST
Nautical Twilight 6:38 AM EST 6:20 PM EST
Astronomical Twilight 6:06 AM EST 6:53 PM EST
Moon 11:28 AM EST (11/29) 10:09 PM EST (11/29)
Length of Visible Light 10h 34m
Length of Day
9h 34m
Waxing Crescent, 24% of the Moon is Illuminated
Nov 29
Waxing Crescent
Dec 2
First Quarter
Dec 10
Full
Dec 17
Last Quarter
Dec 24
New

Hourly Weather History & Observations

Time (EST) Temp. Windchill Dew Point Humidity Pressure Visibility Wind Dir Wind Speed Gust Speed Precip Events Conditions
12:53 AM 39.0 °F 29.6 °F 37.0 °F 93% 29.73 in 9.0 mi NE 18.4 mph - 0.04 in   Overcast
1:53 AM 39.9 °F 31.4 °F 37.0 °F 89% 29.71 in 2.5 mi NE 16.1 mph - 0.03 in Rain Rain
2:11 AM 39.2 °F 30.5 °F 37.4 °F 93% 29.69 in 6.0 mi NE 16.1 mph - 0.03 in Rain Light Rain
2:53 AM 39.9 °F 31.8 °F 37.0 °F 89% 29.70 in 5.0 mi NE 15.0 mph 25.3 mph 0.04 in Rain Light Rain
3:20 AM 39.2 °F 30.2 °F 37.4 °F 93% 29.67 in 2.5 mi NE 17.3 mph 23.0 mph 0.02 in Rain Light Rain
3:30 AM 39.2 °F 30.2 °F 37.4 °F 93% 29.68 in 4.0 mi NE 17.3 mph - 0.02 in Rain Light Rain
3:53 AM 39.0 °F 29.6 °F 37.0 °F 93% 29.68 in 8.0 mi NE 18.4 mph 26.5 mph 0.03 in Rain Light Rain
4:53 AM 39.9 °F 31.8 °F 37.9 °F 93% 29.65 in 6.0 mi NE 15.0 mph 21.9 mph 0.02 in Rain Light Rain
5:53 AM 39.9 °F 30.5 °F 37.0 °F 89% 29.65 in 10.0 mi NNE 19.6 mph 27.6 mph 0.03 in   Overcast
6:38 AM 39.2 °F 29.8 °F 37.4 °F 93% 29.65 in 2.5 mi NE 18.4 mph 28.8 mph 0.02 in Rain Light Rain
6:53 AM 39.9 °F 32.1 °F 37.9 °F 93% 29.66 in 2.5 mi NE 13.8 mph - 0.02 in Rain Light Rain
7:23 AM 39.2 °F 31.2 °F 37.4 °F 93% 29.67 in 3.0 mi NE 13.8 mph - 0.01 in Rain Light Rain
7:40 AM 39.2 °F 32.0 °F 37.4 °F 93% 29.68 in 2.5 mi NE 11.5 mph - 0.02 in Rain Light Rain
7:53 AM 39.9 °F 33.9 °F 37.0 °F 89% 29.68 in 2.5 mi NNE 9.2 mph - 0.04 in Rain Rain
8:02 AM 39.2 °F 30.8 °F 37.4 °F 93% 29.67 in 5.0 mi NE 15.0 mph 25.3 mph 0.00 in Rain Light Rain
8:17 AM 39.2 °F 31.2 °F 35.6 °F 87% 29.67 in 2.5 mi NE 13.8 mph - 0.01 in   Overcast
8:26 AM 39.2 °F 31.6 °F 37.4 °F 93% 29.67 in 2.0 mi NE 12.7 mph - 0.01 in   Overcast
8:53 AM 39.0 °F 30.6 °F 36.0 °F 89% 29.68 in 2.0 mi NE 15.0 mph 20.7 mph 0.01 in Rain Light Rain
9:08 AM 39.2 °F 30.8 °F 35.6 °F 87% 29.67 in 4.0 mi NE 15.0 mph - 0.00 in Rain Light Rain
9:27 AM 39.2 °F 31.6 °F 35.6 °F 87% 29.68 in 1.8 mi NE 12.7 mph - 0.00 in Rain Light Rain
9:53 AM 39.0 °F 34.8 °F 37.0 °F 93% 29.70 in 1.8 mi NNE 5.8 mph - 0.02 in Rain Light Rain
10:45 AM 39.2 °F 33.0 °F 37.4 °F 93% 29.71 in 1.5 mi NNE 9.2 mph - 0.08 in Rain Light Rain
10:53 AM 39.0 °F 33.4 °F 37.0 °F 93% 29.72 in 1.8 mi NNE 8.1 mph - 0.09 in Rain Light Rain
11:02 AM 39.2 °F 33.0 °F 37.4 °F 93% 29.71 in 2.0 mi NNE 9.2 mph - 0.01 in Rain Light Rain
11:49 AM 39.2 °F 33.6 °F 37.4 °F 93% 29.70 in 3.0 mi NNE 8.1 mph - 0.04 in Rain Light Rain
11:53 AM 39.0 °F 33.4 °F 37.0 °F 93% 29.70 in 2.5 mi NNE 8.1 mph - 0.05 in Rain Rain
12:04 PM 39.2 °F 33.6 °F 37.4 °F 93% 29.69 in 4.0 mi NNE 8.1 mph - 0.00 in Rain Light Rain
12:13 PM 39.2 °F 32.5 °F 37.4 °F 93% 29.69 in 8.0 mi North 10.4 mph - 0.01 in Rain Light Rain
12:27 PM 39.2 °F 32.5 °F 37.4 °F 93% 29.68 in 6.0 mi North 10.4 mph - 0.01 in Rain Light Rain
12:37 PM 37.4 °F 29.3 °F 35.6 °F 93% 29.68 in 6.0 mi NNW 12.7 mph - 0.02 in Rain Light Rain
12:53 PM 37.0 °F 28.5 °F 34.0 °F 89% 29.70 in 8.0 mi NNW 13.8 mph - 0.02 in Rain Light Rain
1:13 PM 35.6 °F 26.6 °F 33.8 °F 93% 29.68 in 6.0 mi NNW 13.8 mph - 0.01 in Rain Light Rain
1:20 PM 35.6 °F 26.6 °F 33.8 °F 93% 29.68 in 6.0 mi NNW 13.8 mph - 0.02 in Rain Light Freezing Rain
1:44 PM 33.8 °F 26.4 °F 32.0 °F 93% 29.68 in 5.0 mi NW 9.2 mph - 0.04 in Snow Light Snow
1:53 PM 34.0 °F 26.0 °F 32.0 °F 92% 29.68 in 6.0 mi WNW 10.4 mph - 0.04 in Snow Light Snow
2:00 PM 33.8 °F 27.7 °F 32.0 °F 93% 29.68 in 5.0 mi NW 6.9 mph - 0.01 in Snow Light Snow
2:41 PM 33.8 °F 23.9 °F 32.0 °F 93% 29.67 in 2.5 mi NNW 15.0 mph - 0.05 in Snow Light Snow
2:53 PM 33.1 °F 24.4 °F 30.9 °F 92% 29.68 in 2.0 mi NNW 11.5 mph - 0.06 in Snow Light Snow
3:01 PM 33.8 °F 23.5 °F 30.2 °F 87% 29.66 in 0.8 mi NNW 16.1 mph - 0.01 in Snow Light Snow
3:30 PM 32.0 °F 21.6 °F 30.2 °F 93% 29.66 in 0.2 mi NNW 15.0 mph - 0.05 in Fog , Snow Heavy Snow
3:49 PM 32.0 °F 21.6 °F 30.2 °F 93% 29.67 in 0.5 mi NNW 15.0 mph - 0.08 in Fog , Snow Snow
3:53 PM 32.0 °F 21.6 °F 30.9 °F 96% 29.68 in 0.5 mi NNW 15.0 mph - 0.08 in Fog , Snow Snow
4:07 PM 32.0 °F 21.2 °F 30.2 °F 93% 29.67 in 0.2 mi NNW 16.1 mph 26.5 mph 0.02 in Fog , Snow Heavy Snow
4:24 PM 32.0 °F 21.2 °F 30.2 °F 93% 29.67 in 0.2 mi NW 16.1 mph - 0.05 in Fog , Snow Heavy Snow
4:32 PM 32.0 °F 21.6 °F 30.2 °F 93% 29.68 in 0.2 mi NNW 15.0 mph - 0.06 in Fog , Snow Heavy Snow
4:41 PM 32.0 °F 20.5 °F 30.2 °F 93% 29.68 in 0.5 mi NNW 18.4 mph - 0.07 in Fog , Snow Snow
4:48 PM 32.0 °F 21.6 °F 30.2 °F 93% 29.68 in 0.5 mi NNW 15.0 mph - 0.07 in Fog , Snow Snow
4:53 PM 32.0 °F 21.2 °F 30.9 °F 96% 29.70 in 0.5 mi NNW 16.1 mph - 0.07 in Fog , Snow Snow
5:13 PM 32.0 °F 21.6 °F 30.2 °F 93% 29.69 in 0.8 mi NNW 15.0 mph - 0.02 in Snow Light Snow
5:22 PM 32.0 °F 21.2 °F 30.2 °F 93% 29.69 in 1.0 mi NNW 16.1 mph - 0.02 in Snow Light Snow
5:53 PM 33.1 °F 21.9 °F 30.9 °F 92% 29.70 in 0.8 mi NNW 18.4 mph - 0.04 in Snow Light Snow
6:06 PM 32.0 °F 20.5 °F 30.2 °F 93% 29.70 in 0.5 mi NNW 18.4 mph - 0.01 in Fog , Snow Snow
6:29 PM 32.0 °F 20.5 °F 30.2 °F 93% 29.71 in 1.0 mi NW 18.4 mph - 0.02 in Snow Light Snow
6:53 PM 33.1 °F 21.5 °F 30.9 °F 92% 29.73 in 1.2 mi NW 19.6 mph 26.5 mph 0.03 in Snow Light Snow
7:12 PM 33.8 °F 22.2 °F 30.2 °F 87% 29.72 in 3.0 mi NNW 20.7 mph - 0.00 in Snow Light Snow
7:33 PM 33.8 °F 22.8 °F 30.2 °F 87% 29.72 in 4.0 mi NNW 18.4 mph 27.6 mph 0.00 in Snow Light Snow
7:53 PM 33.1 °F 21.5 °F 30.9 °F 92% 29.73 in 5.0 mi NNW 19.6 mph 27.6 mph 0.00 in Snow Light Snow
8:37 PM 33.8 °F 22.5 °F 30.2 °F 87% 29.75 in 3.0 mi NNW 19.6 mph - 0.00 in Snow Light Snow
8:53 PM 33.1 °F 21.2 °F 30.9 °F 92% 29.77 in 1.2 mi NNW 20.7 mph - 0.00 in Snow Light Snow
9:44 PM 32.0 °F 20.5 °F 30.2 °F 93% 29.77 in 2.5 mi NW 18.4 mph - 0.01 in Snow Light Snow
9:53 PM 32.0 °F 19.5 °F 30.9 °F 96% 29.78 in 1.8 mi NNW 21.9 mph 27.6 mph 0.01 in Snow Light Snow
10:18 PM 32.0 °F 20.1 °F 30.2 °F 93% 29.78 in 2.5 mi NNW 19.6 mph 26.5 mph 0.00 in Snow Light Snow
10:31 PM 32.0 °F 19.5 °F 30.2 °F 93% 29.78 in 1.5 mi NNW 21.9 mph 28.8 mph 0.00 in Snow Light Snow
10:37 PM 32.0 °F 19.8 °F 30.2 °F 93% 29.78 in 2.0 mi NNW 20.7 mph - 0.00 in Snow Light Snow
10:44 PM 32.0 °F 19.8 °F 30.2 °F 93% 29.78 in 2.0 mi NNW 20.7 mph 26.5 mph 0.00 in Snow Light Snow
10:53 PM 32.0 °F 20.5 °F 30.0 °F 92% 29.80 in 2.0 mi NW 18.4 mph 26.5 mph 0.00 in Snow Light Snow
11:04 PM 32.0 °F 20.1 °F 30.2 °F 93% 29.79 in 5.0 mi NW 19.6 mph 29.9 mph 0.00 in Snow Light Snow
11:33 PM 32.0 °F 20.5 °F 30.2 °F 93% 29.79 in 9.0 mi NW 18.4 mph - 0.00 in Snow Light Snow
11:43 PM 33.8 °F 24.3 °F 30.2 °F 87% 29.80 in 9.0 mi NW 13.8 mph 24.2 mph 0.00 in Snow Light Snow
11:53 PM 33.1 °F 22.6 °F 30.0 °F 89% 29.81 in 9.0 mi NW 16.1 mph - 0.00 in Snow Light Snow